Wind_Speed
44 44 43 43 43 42 42 41 41 40 41 40 40 40 41 41 41 41 41 41 41 40 40 41 40 40 40 40 40 39 39 39 37 37 37 38 38 38 37 37 37 38 37
45 45 45 44 44 44 44 44 43 42 42 42 43 43 42 43 42 42 42 42 42 42 41 41 41 41 41 41 41 41 41 40 40 39 39 39 39 39 39 39 39 39 39
45 46 46 46 46 45 45 45 45 45 44 45 45 45 44 44 44 43 44 44 44 44 43 43 42 42 42 41 42 42 42 43 43 42 42 41 41 41 40 41 41 40 40
45 46 46 47 47 47 47 47 47 47 47 47 47 47 46 46 45 45 46 45 45 46 45 45 45 45 44 45 44 44 44 44 44 43 43 43 43 43 42 42 42 42 42
44 45 46 47 47 47 48 48 48 49 49 49 49 48 48 48 48 47 47 47 47 47 47 47 47 47 47 47 47 47 46 46 45 45 45 44 44 44 44 43 43 43 43
44 45 45 46 46 47 47 48 48 49 49 49 50 50 50 49 49 49 49 49 49 49 49 49 49 49 49 49 49 49 48 48 48 47 47 46 46 45 45 45 45 44 43
43 44 45 45 46 47 47 48 48 49 49 50 50 50 50 50 51 51 51 51 51 51 50 50 50 51 51 50 50 50 50 50 50 49 48 48 47 47 47 47 47 47 46
42 43 44 45 46 47 47 48 49 49 49 49 50 51 51 51 51 52 52 52 52 52 52 52 52 52 52 52 52 52 51 52 51 50 50 49 48 48 49 49 49 49 48
42 43 44 45 46 46 47 48 48 49 49 50 50 51 51 51 52 52 53 53 53 53 53 53 54 54 54 54 52 52 52 52 52 51 51 50 49 50 50 49 49 50 49
41 42 43 45 46 46 47 48 48 49 49 50 51 51 51 51 52 52 53 54 54 54 55 54 54 54 54 55 54 52 52 52 52 53 53 52 51 51 51 50 50 50 50
41 42 43 44 45 46 47 48 49 49 50 51 51 51 51 52 52 53 53 54 54 55 55 54 55 55 55 55 54 53 53 53 52 53 53 53 53 53 52 52 52 52 51
42 43 44 45 45 46 47 48 49 50 51 51 51 51 52 52 52 53 53 54 55 55 55 55 55 56 56 56 55 55 54 54 53 53 53 53 53 54 53 53 53 53 53
42 43 44 45 46 46 47 48 48 49 50 51 51 52 52 53 53 53 54 54 55 55 56 56 56 56 57 57 57 56 55 55 55 54 54 55 55 54 54 54 54 54 54
41 42 43 44 45 46 46 47 48 49 50 50 51 51 52 52 53 54 54 54 55 55 56 56 56 57 57 58 57 56 56 56 56 56 55 56 56 55 55 55 55 55 55
40 41 42 43 44 45 46 47 47 48 49 49 50 50 51 52 53 53 54 55 55 55 56 56 56 57 57 57 57 57 57 57 57 56 56 56 56 56 56 55 55 55 55
41 41 42 42 44 45 46 46 46 47 48 48 49 50 51 51 52 52 53 54 55 56 56 56 56 57 57 58 58 58 57 57 57 57 57 57 57 56 56 56 56 55 55
40 41 42 42 43 44 45 45 46 47 47 48 49 49 50 50 51 51 52 53 54 55 56 57 57 57 57 58 59 58 58 58 57 57 57 57 56 56 56 56 56 56 55
39 40 40 41 42 43 43 44 45 46 47 47 48 49 49 50 50 50 51 52 53 54 55 57 57 58 58 58 59 59 58 58 58 57 56 56 56 56 56 56 56 55 54
38 39 39 40 40 41 42 43 44 45 46 46 46 47 48 49 49 50 50 51 51 52 53 54 55 56 56 57 58 58 58 57 57 56 56 55 55 55 55 56 55 54 54
38 38 38 38 39 40 41 41 42 43 44 44 45 46 47 48 48 49 49 50 50 50 51 51 51 52 53 54 55 56 56 56 56 55 55 55 55 55 55 55 54 54 53
37 37 37 37 38 39 40 41 42 43 43 44 45 46 47 47 48 48 49 49 49 49 49 49 49 49 50 50 52 53 54 54 54 54 54 54 54 53 53 54 53 53 53
38 38 37 37 37 38 38 39 41 42 42 43 44 44 45 46 47 47 47 48 48 48 48 48 48 48 48 48 49 50 51 52 53 52 52 53 53 53 53 53 53 53 53
37 37 37 36 36 37 38 38 39 41 41 42 42 43 43 43 43 44 44 45 46 46 46 46 47 47 48 48 47 48 49 50 51 51 51 51 52 53 52 52 53 53 53
34 34 34 34 35 35 36 36 36 37 39 40 40 41 41 41 41 42 42 43 44 44 44 44 45 45 46 45 45 46 47 48 49 50 50 50 50 51 51 52 53 53 53
32 33 33 33 33 34 35 35 35 35 36 36 37 38 38 39 39 40 41 42 42 42 42 42 42 43 43 43 44 44 45 46 48 49 49 49 49 50 50 51 51 51 52
31 32 32 32 33 33 34 34 33 33 34 34 34 35 35 36 37 38 38 39 39 40 40 40 40 40 41 41 42 43 44 44 46 47 48 48 48 49 49 49 49 49 49
Wind_Direction
249 249 249 250 250 251 251 253 253 254 255 255 256 258 259 260 260 261 262 261 262 261 260 260 260 259 259 259 259 259 259 260 261 261 261 260 260 259 259 260 260 259 259
250 250 250 250 250 251 252 252 253 254 255 256 257 258 259 260 261 261 261 261 261 261 261 261 260 259 259 259 259 259 259 261 262 262 262 261 261 260 259 259 259 258 258
250 250 250 250 250 251 251 252 253 254 256 257 258 259 260 260 260 260 261 261 261 262 261 260 259 259 259 259 258 259 260 261 262 263 263 262 261 261 260 258 257 257 257
250 250 250 250 251 251 251 253 254 255 255 257 258 259 260 260 260 260 260 261 261 262 262 261 260 260 260 260 260 261 262 262 262 262 263 262 261 260 258 257 257 257 257
250 250 250 251 251 252 252 253 254 255 256 257 258 259 260 260 260 260 260 260 261 262 262 261 260 260 260 261 261 262 262 262 261 261 262 262 261 260 259 257 256 256 257
251 250 251 252 252 253 253 254 254 256 256 257 258 259 259 259 260 260 261 261 261 261 262 261 260 260 260 260 260 261 261 262 262 261 262 261 261 261 259 258 257 256 257
251 251 251 252 253 253 254 255 255 256 257 258 258 259 259 259 260 260 261 261 261 261 261 261 260 260 260 260 260 260 261 261 261 261 261 260 260 260 259 259 258 257 257
252 252 252 253 254 254 255 255 256 257 257 258 258 259 260 260 260 261 261 261 261 261 261 261 260 259 259 259 260 260 260 260 261 260 259 260 260 259 258 259 259 258 257
254 254 254 254 254 255 255 256 257 258 258 258 258 259 260 260 261 261 261 261 260 261 262 262 261 260 259 259 260 260 260 259 259 260 260 259 260 259 258 259 259 258 256
255 255 255 255 255 256 256 257 257 258 259 259 259 260 261 261 261 261 261 261 261 262 262 262 261 260 260 260 259 259 259 259 259 260 260 259 260 259 258 258 258 257 256
257 257 257 258 258 258 258 259 259 259 259 259 259 260 261 261 262 262 262 262 262 262 263 262 261 260 260 259 258 258 258 259 260 260 260 259 259 258 258 258 258 256 256
259 260 259 260 260 260 260 261 261 260 260 260 260 261 261 262 263 263 263 263 263 263 263 262 260 259 259 259 258 258 259 259 260 260 260 259 258 258 258 258 258 257 256
261 262 261 262 262 262 262 262 262 262 262 262 262 262 263 263 264 263 263 263 263 264 263 262 260 260 259 258 258 259 259 259 260 260 260 259 258 258 258 259 258 256 256
262 262 262 263 263 262 262 262 262 263 263 263 263 264 264 264 264 264 263 263 263 263 263 262 261 260 259 259 259 260 260 260 260 260 260 259 259 258 258 259 258 257 256
263 262 263 263 263 263 262 263 263 264 264 264 264 265 265 265 266 265 264 263 263 263 263 263 262 261 260 259 259 260 260 260 260 260 260 259 258 258 258 258 258 257 256
264 264 264 264 264 264 263 264 264 264 265 265 266 266 266 267 266 266 265 265 265 264 264 264 263 262 261 260 259 260 260 260 260 259 259 259 258 258 258 258 258 257 257
266 265 264 265 265 264 264 264 265 266 266 267 267 267 268 268 268 267 266 266 266 266 265 264 263 263 262 261 260 260 260 260 260 260 259 259 258 258 258 258 258 257 257
266 266 266 266 266 266 265 265 266 266 267 268 268 268 269 269 269 268 267 267 267 267 267 265 264 263 263 262 261 261 262 261 260 259 259 258 257 257 257 257 257 257 256
268 268 268 268 268 267 267 267 267 268 268 268 268 269 270 270 269 269 268 267 268 268 267 266 265 264 263 262 262 262 262 261 260 259 258 257 256 256 257 257 257 256 256
270 270 270 270 269 268 269 269 269 269 269 269 270 270 271 270 270 269 268 268 268 268 267 266 265 264 263 262 262 262 261 260 259 258 257 256 255 255 256 256 256 256 256
272 273 273 273 272 271 271 270 271 271 271 271 272 272 272 271 271 270 269 269 269 268 267 266 265 264 263 263 263 262 261 260 259 257 255 254 254 254 254 254 254 255 256
273 274 275 275 274 273 273 273 273 273 273 273 273 274 273 272 272 270 270 269 269 268 267 266 265 264 264 264 263 262 261 259 258 256 254 254 253 252 253 254 254 255 256
274 275 276 276 275 275 275 276 276 275 275 276 276 276 275 274 272 270 270 269 268 268 267 266 265 265 265 264 263 262 260 259 258 255 254 253 252 252 253 253 253 254 255
276 276 276 276 275 275 276 278 278 277 278 278 278 277 276 274 272 271 270 270 270 268 267 266 265 265 264 263 263 261 259 258 257 255 254 253 252 252 253 253 253 254 255
277 276 277 277 277 277 278 279 280 280 280 280 279 279 277 275 274 273 272 271 269 268 266 266 265 264 263 262 263 261 259 258 257 256 254 253 252 252 253 254 254 255 255
278 278 278 278 278 278 279 280 281 282 282 281 281 281 279 277 276 275 273 271 271 269 267 267 265 264 263 262 262 261 260 259 257 255 254 253 253 253 254 254 254 254 254
Height
5711 5713 5716 5718 5720 5722 5724 5725 5727 5728 5729 5731 5732 5733 5734 5735 5736 5737 5737 5738 5739 5739 5740 5740 5741 5742 5743 5744 5745 5746 5746 5747 5748 5749 5750 5751 5752 5752 5753 5753 5754 5755 5755
5700 5702 5704 5706 5708 5711 5712 5714 5716 5717 5719 5720 5721 5722 5723 5724 5725 5726 5726 5727 5728 5729 5729 5729 5730 5731 5732 5733 5734 5735 5736 5737 5738 5739 5740 5741 5742 5742 5743 5743 5744 5745 5745
5688 5690 5692 5694 5696 5698 5701 5702 5704 5706 5707 5708 5710 5711 5712 5713 5714 5715 5715 5716 5717 5718 5718 5719 5720 5720 5721 5722 5723 5725 5726 5727 5727 5727 5728 5729 5730 5731 5732 5732 5733 5734 5735
5675 5677 5679 5681 5684 5686 5688 5690 5692 5693 5695 5696 5698 5699 5700 5701 5702 5703 5704 5704 5705 5706 5706 5707 5708 5709 5710 5711 5712 5713 5714 5715 5716 5716 5716 5718 5718 5719 5721 5722 5722 5723 5724
5663 5665 5667 5669 5671 5673 5675 5677 5679 5681 5682 5684 5685 5686 5687 5688 5689 5690 5691 5692 5693 5693 5694 5694 5695 5696 5697 5698 5699 5700 5701 5702 5703 5704 5705 5705 5706 5707 5708 5710 5711 5712 5713
5650 5652 5654 5656 5658 5660 5662 5664 5666 5668 5669 5670 5672 5673 5674 5675 5676 5677 5678 5679 5680 5680 5681 5681 5682 5683 5684 5685 5686 5687 5688 5689 5690 5691 5692 5693 5694 5695 5696 5698 5699 5700 5701
5638 5640 5642 5644 5646 5648 5650 5651 5653 5654 5656 5657 5658 5659 5660 5662 5663 5663 5664 5665 5666 5666 5667 5668 5668 5669 5670 5672 5673 5674 5675 5676 5677 5678 5679 5680 5681 5682 5683 5685 5686 5688 5689
5626 5628 5630 5632 5634 5636 5637 5638 5640 5641 5642 5644 5645 5646 5647 5648 5649 5649 5650 5651 5651 5652 5653 5653 5654 5655 5656 5658 5659 5660 5661 5662 5663 5664 5665 5667 5668 5669 5670 5671 5673 5674 5677
5614 5616 5618 5619 5621 5623 5624 5625 5627 5628 5629 5630 5630 5631 5632 5633 5634 5635 5635 5636 5637 5637 5638 5638 5639 5641 5642 5643 5644 5645 5646 5647 5649 5650 5651 5653 5654 5655 5656 5657 5659 5661 5663
5602 5604 5605 5606 5608 5609 5610 5611 5613 5614 5615 5615 5616 5617 5618 5619 5619 5620 5620 5621 5622 5622 5623 5623 5624 5626 5627 5628 5630 5631 5632 5633 5634 5636 5637 5638 5640 5641 5642 5644 5645 5646 5649
5591 5592 5593 5594 5595 5596 5597 5598 5598 5599 5600 5601 5602 5603 5604 5604 5605 5605 5605 5606 5606 5607 5607 5608 5609 5610 5612 5613 5615 5616 5618 5619 5620 5621 5622 5623 5625 5627 5628 5629 5631 5632 5635
5579 5580 5581 5581 5582 5582 5583 5584 5584 5585 5586 5587 5588 5588 5589 5590 5590 5590 5590 5590 5591 5591 5592 5592 5593 5595 5597 5598 5600 5601 5602 5603 5605 5606 5607 5608 5610 5612 5614 5615 5616 5618 5620
5567 5567 5568 5569 5569 5569 5570 5570 5571 5571 5572 5573 5573 5574 5574 5575 5575 5575 5575 5575 5575 5575 5576 5577 5578 5579 5581 5582 5584 5585 5587 5588 5589 5591 5592 5593 5595 5597 5598 5600 5602 5603 5606
5555 5555 5555 5556 5556 5556 5557 5557 5557 5558 5558 5558 5559 5559 5559 5559 5559 5559 5560 5560 5560 5560 5560 5561 5562 5563 5565 5567 5568 5570 5571 5572 5573 5575 5576 5578 5579 5581 5583 5585 5586 5588 5590
5542 5543 5543 5543 5543 5543 5544 5544 5544 5544 5544 5544 5545 5544 5544 5544 5544 5544 5544 5544 5544 5545 5545 5545 5546 5547 5549 5551 5552 5554 5555 5556 5557 5559 5560 5562 5564 5565 5567 5569 5571 5572 5575
5530 5530 5530 5530 5530 5530 5530 5530 5530 5530 5530 5530 5530 5530 5529 5529 5529 5529 5528 5528 5529 5529 5529 5530 5530 5531 5533 5535 5536 5537 5538 5540 5541 5543 5544 5546 5548 5549 5551 5553 5555 5557 5559
5518 5518 5518 5518 5517 5517 5517 5517 5517 5516 5516 5516 5516 5515 5515 5514 5514 5514 5513 5513 5513 5513 5513 5514 5514 5515 5517 5518 5519 5520 5521 5523 5525 5526 5528 5530 5532 5533 5535 5537 5539 5541 5543
5506 5506 5506 5505 5505 5504 5504 5504 5503 5503 5502 5502 5501 5501 5500 5500 5499 5498 5498 5498 5497 5497 5497 5497 5498 5499 5500 5501 5502 5503 5504 5506 5508 5510 5512 5514 5516 5518 5519 5521 5523 5526 5528
5495 5494 5494 5493 5492 5492 5491 5491 5490 5489 5488 5488 5487 5486 5485 5485 5484 5484 5483 5482 5482 5481 5481 5481 5481 5482 5484 5484 5485 5485 5487 5489 5492 5493 5495 5497 5500 5503 5504 5506 5509 5511 5514
5483 5483 5482 5481 5480 5479 5479 5478 5477 5476 5475 5474 5473 5472 5471 5470 5469 5468 5468 5467 5466 5466 5465 5465 5465 5466 5467 5468 5468 5468 5470 5473 5476 5478 5480 5482 5485 5487 5488 5490 5493 5496 5500
5472 5471 5470 5469 5468 5467 5466 5465 5464 5463 5462 5460 5459 5458 5456 5455 5454 5453 5453 5452 5451 5451 5451 5451 5451 5451 5451 5452 5452 5452 5453 5456 5459 5461 5464 5467 5470 5472 5474 5476 5479 5483 5485
5460 5459 5458 5457 5456 5455 5454 5453 5451 5450 5448 5447 5445 5444 5442 5441 5439 5438 5437 5436 5436 5436 5435 5435 5435 5436 5436 5436 5437 5437 5438 5440 5442 5446 5449 5452 5455 5457 5459 5462 5465 5468 5469
5449 5448 5447 5446 5445 5443 5442 5440 5439 5437 5435 5434 5432 5430 5429 5427 5425 5424 5423 5422 5421 5420 5420 5420 5421 5421 5421 5422 5422 5422 5423 5424 5427 5430 5434 5437 5439 5442 5444 5447 5450 5452 5454
5438 5437 5436 5435 5433 5432 5430 5428 5427 5425 5423 5421 5419 5417 5415 5414 5412 5411 5409 5408 5407 5406 5406 5406 5406 5406 5407 5407 5407 5408 5409 5410 5412 5416 5419 5422 5424 5426 5430 5432 5434 5437 5439
5428 5426 5425 5424 5422 5421 5419 5417 5415 5413 5411 5409 5407 5405 5403 5401 5399 5398 5396 5395 5394 5392 5392 5392 5392 5392 5393 5394 5394 5394 5395 5397 5399 5401 5404 5407 5410 5412 5415 5418 5420 5422 5425
5418 5416 5414 5413 5412 5410 5408 5406 5404 5402 5400 5398 5396 5393 5391 5389 5387 5385 5384 5382 5381 5380 5379 5379 5379 5379 5380 5381 5380 5381 5382 5383 5385 5386 5389 5393 5396 5399 5401 5404 5406 5408 5410